VK4RM-13 Weather Reports


time (UTC)temp
F
wind
direction
speed
knots
gust
knots
rain 1hr
in
rain 24hr
in
rain mn
in
humidity
%
barometer
mb
20260505223636 72 329 0.0 1.7 0.00 0.00 0.00 82 995.6
20260505222636 72 87 0.0 1.7 0.00 0.00 0.00 84 995.5
20260505221637 71 75 0.0 0.0 0.00 0.00 0.00 86 995.6
20260505220637 70 75 0.0 0.0 0.00 0.00 0.00 88 995.6
20260505215637 69 90 0.0 0.0 0.00 0.00 0.00 90 995.6
20260505214637 68 76 0.0 0.0 0.00 0.00 0.00 93 995.6
20260505213637 68 37 0.0 0.0 0.00 0.00 0.00 94 995.5
20260505212637 67 37 0.0 0.0 0.00 0.00 0.00 93 995.4
20260505211637 67 37 0.0 0.0 0.00 0.00 0.00 93 995.3
20260505210637 67 37 0.0 0.0 0.00 0.00 0.00 94 995.2
20260505205637 67 37 0.0 1.7 0.00 0.00 0.00 94 995.1
20260505204638 66 36 0.9 3.5 0.00 0.00 0.00 95 995.0
20260505203637 65 312 0.0 0.0 0.00 0.00 0.00 95 994.9
20260505202637 65 312 0.0 0.0 0.00 0.00 0.00 94 994.9
20260505201637 65 312 0.0 0.0 0.00 0.00 0.00 94 994.7
20260505200637 65 312 0.0 0.0 0.00 0.00 0.00 94 994.7
20260505195640 65 312 0.0 0.0 0.00 0.00 0.00 94 994.6
20260505194637 65 312 0.0 0.0 0.00 0.00 0.00 94 994.6
20260505193637 65 312 0.0 0.0 0.00 0.00 0.00 94 994.5
20260505192637 65 312 0.0 0.0 0.00 0.00 0.00 93 994.3
20260505191637 65 312 0.0 0.0 0.00 0.00 0.00 93 994.2
20260505190637 66 312 0.0 0.0 0.00 0.00 0.00 94 994.1
20260505185637 66 312 0.0 0.0 0.00 0.00 0.00 93 994.0
20260505184637 66 312 0.0 0.0 0.00 0.00 0.00 93 994.0
20260505183637 67 312 0.0 0.0 0.00 0.00 0.00 93 994.0
20260505182638 67 312 0.0 0.9 0.00 0.00 0.00 93 994.0
20260505181637 67 309 0.0 0.0 0.00 0.00 0.00 94 994.0
20260505180637 67 309 0.0 0.0 0.00 0.00 0.00 94 993.9
20260505175637 67 309 0.0 0.0 0.00 0.00 0.00 94 994.0
20260505174637 67 309 0.0 0.0 0.00 0.00 0.00 94 994.1
20260505173637 67 309 0.0 0.0 0.00 0.00 0.00 94 994.1
20260505172637 67 309 0.0 0.0 0.00 0.00 0.00 94 994.2
20260505171637 66 309 0.0 0.0 0.00 0.00 0.00 94 994.3
20260505170637 66 309 0.0 0.0 0.00 0.00 0.00 93 994.3
20260505165637 66 309 0.0 0.0 0.00 0.01 0.00 93 994.2
20260505164637 66 309 0.0 0.0 0.00 0.01 0.00 93 994.3
20260505163637 66 307 0.0 0.0 0.00 0.01 0.00 93 994.3
20260505162641 67 307 0.0 0.0 0.00 0.01 0.00 93 994.4
20260505161637 67 307 0.0 0.0 0.00 0.01 0.00 93 994.5
20260505160637 67 307 0.0 0.0 0.00 0.01 0.00 92 994.6
20260505152637 69 307 0.0 0.0 0.00 0.01 0.00 92 994.9
20260505151637 69 307 0.0 0.0 0.00 0.01 0.00 92 995.0
20260505150637 69 307 0.0 0.0 0.00 0.01 0.00 92 995.1
20260505140637 69 307 0.0 0.0 0.00 0.01 0.00 92 995.4
20260505123638 69 307 0.0 0.0 0.00 0.01 0.00 91 996.1
20260505122638 69 307 0.0 0.0 0.00 0.01 0.00 91 996.0
20260505121638 69 307 0.0 0.0 0.00 0.01 0.00 91 996.2
20260505115638 69 307 0.0 0.0 0.00 0.01 0.00 90 996.3
20260505114638 69 307 0.0 0.0 0.00 0.01 0.00 91 996.2
20260505112638 68 307 0.0 0.0 0.00 0.01 0.00 90 996.2
20260505111638 68 307 0.0 0.0 0.00 0.01 0.00 90 996.3
20260505110639 68 307 0.0 0.0 0.00 0.01 0.00 90 996.4
20260505095638 67 307 0.0 0.0 0.00 0.01 0.00 88 996.0
20260505094638 68 307 0.0 0.0 0.00 0.01 0.00 88 995.9
20260505092638 68 307 0.0 0.0 0.00 0.01 0.00 87 995.7
20260505091638 68 307 0.0 0.0 0.00 0.01 0.00 86 995.6
20260505085638 69 307 0.0 0.0 0.00 0.01 0.00 85 995.3
20260505084638 69 307 0.0 0.0 0.00 0.01 0.00 85 995.2
20260505082638 70 307 0.0 0.0 0.00 0.01 0.00 84 994.9
20260505081638 70 307 0.0 0.0 0.00 0.01 0.00 84 994.8
20260505075638 71 307 0.0 0.0 0.00 0.01 0.00 84 994.5
20260505074638 71 307 0.0 0.0 0.00 0.01 0.00 83 994.3
20260505072638 73 307 0.0 0.0 0.00 0.01 0.00 81 994.2
20260505071638 74 307 0.0 0.0 0.00 0.01 0.00 79 994.1
20260505065638 76 307 0.0 0.0 0.00 0.01 0.00 74 993.9
20260505064638 78 307 0.0 0.0 0.00 0.01 0.00 66 993.7
20260505062638 80 288 0.0 1.7 0.00 0.01 0.01 64 993.6
20260505061638 79 288 0.0 3.5 0.00 0.01 0.01 66 993.5
20260505055638 80 345 0.9 4.3 0.00 0.01 0.01 64 993.4
20260505054638 79 331 0.9 3.5 0.00 0.01 0.01 66 993.3
20260505052639 80 300 0.9 1.7 0.00 0.01 0.01 65 993.2
20260505051638 80 349 1.7 6.1 0.00 0.01 0.01 65 993.3
20260505041638 84 334 1.7 6.1 0.00 0.01 0.01 47 993.2
20260505040638 85 20 0.9 6.1 0.00 0.01 0.01 47 993.3
20260505035638 84 303 2.6 6.1 0.00 0.01 0.01 47 993.4
20260505034638 84 46 1.7 7.0 0.00 0.01 0.01 48 993.5
20260505033639 84 351 0.9 3.5 0.00 0.01 0.01 51 993.5
20260505032639 85 342 1.7 6.1 0.00 0.01 0.01 51 993.4
20260505031639 84 325 2.6 7.0 0.00 0.01 0.01 53 993.5
20260505030639 84 272 0.9 5.2 0.00 0.01 0.01 52 993.7
20260505025639 84 306 0.9 4.3 0.00 0.01 0.01 52 993.9
20260505024639 84 9 0.9 3.5 0.00 0.01 0.01 54 994.1
20260505023639 83 9 0.9 1.7 0.00 0.01 0.01 57 994.2
20260505022639 82 328 2.6 5.2 0.00 0.01 0.01 54 994.4
20260505021639 83 349 0.9 5.2 0.00 0.01 0.01 56 994.7
20260505020639 83 22 0.9 3.5 0.00 0.01 0.01 55 994.8
20260505015639 82 312 0.0 1.7 0.00 0.01 0.01 60 994.8
20260505014639 81 346 0.9 1.7 0.00 0.01 0.01 59 994.9
20260505013639 82 5 0.0 3.5 0.00 0.01 0.01 58 995.1
20260505012639 80 61 0.0 4.3 0.00 0.01 0.01 61 995.2
20260505011639 80 321 0.9 5.2 0.00 0.01 0.01 65 995.4
20260505010641 80 290 0.0 0.9 0.00 0.01 0.01 66 995.2
20260505005639 80 319 0.0 4.3 0.00 0.01 0.01 64 995.6
20260505004639 79 287 0.0 3.5 0.00 0.01 0.01 66 996.0
20260505003639 79 288 0.0 0.9 0.00 0.01 0.01 66 996.0
20260505002639 79 327 0.0 3.5 0.00 0.01 0.01 63 995.8
20260505001639 79 325 1.7 4.3 0.00 0.01 0.01 64 996.1
20260505000639 79 311 0.0 6.1 0.00 0.01 0.01 67 996.3
20260504235639 78 319 0.9 3.5 0.00 0.01 0.01 70 996.1
20260504234639 77 300 0.0 4.3 0.00 0.01 0.01 71 996.4
20260504233639 77 11 0.0 1.7 0.00 0.01 0.01 73 996.5
20260504232639 76 355 0.0 3.5 0.00 0.01 0.01 74 996.3
20260504231639 75 325 0.0 0.0 0.00 0.01 0.01 77 996.4
20260504230639 75 331 0.0 1.7 0.00 0.01 0.01 77 996.4
20260504225639 74 331 0.0 4.3 0.00 0.01 0.01 81 996.5
20260504224639 73 327 0.0 1.7 0.00 0.01 0.01 84 996.5